SV1SSL-2 Weather Reports


time (UTC)temp
F
wind
direction
speed
knots
gust
knots
rain 1hr
in
rain 24hr
in
rain mn
in
humidity
%
barometer
mb
20260506201805 63 0 0.0 0.0 0.00 0.00 0.00 56 1013.0
20260506201604 63 0 0.0 0.0 0.00 0.00 0.00 56 1013.2
20260506201404 63 0 0.0 0.0 0.00 0.00 0.00 56 1013.1
20260506201204 63 0 0.0 0.0 0.00 0.00 0.00 56 1013.1
20260506201005 63 0 0.0 0.0 0.00 0.00 0.00 55 1013.2
20260506200804 63 135 0.0 0.9 0.00 0.00 0.00 55 1013.1
20260506200605 63 135 0.0 1.7 0.00 0.00 0.00 55 1013.0
20260506200404 64 135 0.0 1.7 0.00 0.00 0.00 55 1013.2
20260506200204 64 135 0.0 1.7 0.00 0.00 0.00 55 1013.2
20260506200005 64 135 0.0 1.7 0.00 0.00 0.00 55 1013.1
20260506195804 64 135 0.0 1.7 0.00 0.00 0.00 55 1013.1
20260506195404 63 135 0.0 1.7 0.00 0.00 0.00 55 1013.1
20260506195204 64 135 0.0 0.9 0.00 0.00 0.00 54 1013.2
20260506195004 64 135 0.0 0.9 0.00 0.00 0.00 54 1013.2
20260506194805 64 135 0.0 0.9 0.00 0.00 0.00 54 1013.1
20260506194604 64 0 0.0 0.0 0.00 0.00 0.00 54 1012.8
20260506194204 64 0 0.0 0.0 0.00 0.00 0.00 54 1013.0
20260506194004 64 0 0.0 0.0 0.00 0.00 0.00 54 1012.9
20260506193604 64 0 0.0 0.0 0.00 0.00 0.00 53 1013.0
20260506193405 64 0 0.0 0.0 0.00 0.00 0.00 53 1013.0
20260506193204 64 135 0.0 1.7 0.00 0.00 0.00 53 1012.8
20260506193005 64 135 0.0 1.7 0.00 0.00 0.00 53 1012.8
20260506192804 65 135 0.0 1.7 0.00 0.00 0.00 53 1012.6
20260506192405 65 135 0.0 1.7 0.00 0.00 0.00 53 1012.8
20260506192204 65 135 0.0 1.7 0.00 0.00 0.00 53 1012.9
20260506192005 65 135 0.0 1.7 0.00 0.00 0.00 52 1012.7
20260506191804 65 135 0.0 1.7 0.00 0.00 0.00 52 1012.7
20260506191604 65 135 0.0 1.7 0.00 0.00 0.00 52 1012.7
20260506191404 65 135 0.0 1.7 0.00 0.00 0.00 51 1012.6
20260506191205 65 135 0.0 1.7 0.00 0.00 0.00 51 1012.8
20260506190804 66 135 0.0 1.7 0.00 0.00 0.00 51 1012.6
20260506190604 66 135 0.0 1.7 0.00 0.00 0.00 50 1012.6
20260506190204 66 135 0.0 1.7 0.00 0.00 0.00 50 1012.7
20260506190005 66 137 0.0 1.7 0.00 0.00 0.00 50 1012.6
20260506185804 66 137 0.0 1.7 0.00 0.00 0.00 50 1012.6
20260506185604 66 136 0.0 1.7 0.00 0.00 0.00 49 1012.7
20260506185404 66 136 0.0 1.7 0.00 0.00 0.00 50 1012.7
20260506185204 66 136 0.0 1.7 0.00 0.00 0.00 49 1012.5
20260506185005 66 135 0.0 1.7 0.00 0.00 0.00 49 1012.4
20260506184804 67 135 0.0 1.7 0.00 0.00 0.00 49 1012.6
20260506184604 67 135 0.0 1.7 0.00 0.00 0.00 49 1012.5
20260506184405 67 135 0.0 1.7 0.00 0.00 0.00 48 1012.6
20260506184204 67 135 0.0 1.7 0.00 0.00 0.00 49 1012.7
20260506184004 67 135 0.0 1.7 0.00 0.00 0.00 49 1012.6
20260506183804 67 135 0.0 1.7 0.00 0.00 0.00 48 1012.5
20260506183604 67 135 0.0 1.7 0.00 0.00 0.00 48 1012.7
20260506183204 67 135 0.0 1.7 0.00 0.00 0.00 48 1012.4
20260506182604 67 135 0.0 1.7 0.00 0.00 0.00 47 1012.3
20260506182404 68 135 0.0 1.7 0.00 0.00 0.00 46 1012.4
20260506182204 68 136 0.0 1.7 0.00 0.00 0.00 46 1012.5
20260506181604 68 144 0.0 1.7 0.00 0.00 0.00 45 1012.2
20260506181404 69 132 0.0 1.7 0.00 0.00 0.00 44 1012.3
20260506181204 68 131 0.0 1.7 0.00 0.00 0.00 43 1012.3
20260506181004 68 120 0.0 1.7 0.00 0.00 0.00 43 1012.2
20260506180804 69 109 0.0 1.7 0.00 0.00 0.00 43 1012.2
20260506180605 69 102 0.0 1.7 0.00 0.00 0.00 43 1012.1
20260506180404 69 105 0.0 1.7 0.00 0.00 0.00 42 1012.1
20260506180204 69 91 0.0 1.7 0.00 0.00 0.00 42 1012.1
20260506180005 69 90 0.0 1.7 0.00 0.00 0.00 42 1012.1
20260506175804 69 90 0.0 1.7 0.00 0.00 0.00 42 1012.1
20260506175604 69 80 0.0 1.7 0.00 0.00 0.00 41 1011.9
20260506175404 69 86 0.0 1.7 0.00 0.00 0.00 41 1012.0
20260506175204 69 89 0.0 1.7 0.00 0.00 0.00 41 1012.1
20260506174805 69 105 0.0 1.7 0.00 0.00 0.00 41 1012.2
20260506174604 69 166 0.0 0.9 0.00 0.00 0.00 41 1012.1
20260506174004 69 154 0.0 1.7 0.00 0.00 0.00 40 1012.0
20260506173805 70 179 0.0 1.7 0.00 0.00 0.00 40 1012.1
20260506173605 70 178 0.0 1.7 0.00 0.00 0.00 40 1012.1
20260506173404 70 201 0.0 1.7 0.00 0.00 0.00 40 1011.8
20260506173005 70 277 0.0 1.7 0.00 0.00 0.00 39 1011.8
20260506172604 70 309 0.0 1.7 0.00 0.00 0.00 38 1011.9
20260506172404 71 309 0.0 1.7 0.00 0.00 0.00 38 1012.0
20260506172204 71 309 0.0 1.7 0.00 0.00 0.00 38 1011.9
20260506171804 71 284 0.0 3.5 0.00 0.00 0.00 37 1011.8
20260506171604 71 272 0.0 3.5 0.00 0.00 0.00 37 1011.7
20260506171004 72 287 0.9 3.5 0.00 0.00 0.00 36 1011.6
20260506170604 72 294 0.0 3.5 0.00 0.00 0.00 35 1011.8
20260506170404 72 297 0.0 3.5 0.00 0.00 0.00 35 1011.7
20260506170205 72 312 0.0 1.7 0.00 0.00 0.00 35 1011.8
20260506170004 73 309 0.0 3.5 0.00 0.00 0.00 35 1011.6
20260506165804 73 241 0.0 3.5 0.00 0.00 0.00 35 1011.7
20260506165604 73 222 0.9 3.5 0.00 0.00 0.00 33 1011.9
20260506165405 73 225 0.9 3.5 0.00 0.00 0.00 33 1011.7
20260506165205 74 218 0.9 3.5 0.00 0.00 0.00 33 1011.7
20260506165005 74 216 0.9 3.5 0.00 0.00 0.00 33 1011.9
20260506164805 74 224 0.9 3.5 0.00 0.00 0.00 33 1011.8
20260506164604 74 237 0.9 3.5 0.00 0.00 0.00 32 1011.8
20260506164204 75 256 1.7 7.0 0.00 0.00 0.00 32 1011.7
20260506164004 75 259 1.7 7.0 0.00 0.00 0.00 32 1011.7
20260506163804 75 261 1.7 7.0 0.00 0.00 0.00 32 1011.8
20260506163604 75 263 2.6 7.0 0.00 0.00 0.00 32 1011.9
20260506163405 74 259 2.6 8.7 0.00 0.00 0.00 32 1011.8
20260506163205 74 259 2.6 8.7 0.00 0.00 0.00 32 1011.8
20260506163005 74 266 2.6 8.7 0.00 0.00 0.00 32 1011.7
20260506162804 75 264 2.6 8.7 0.00 0.00 0.00 32 1011.8
20260506162604 75 263 2.6 8.7 0.00 0.00 0.00 31 1011.5
20260506162004 77 249 2.6 6.1 0.00 0.00 0.00 30 1011.6
20260506161605 77 245 2.6 7.0 0.00 0.00 0.00 30 1011.7
20260506161405 77 243 2.6 7.0 0.00 0.00 0.00 29 1011.6
20260506161205 77 235 2.6 7.0 0.00 0.00 0.00 29 1011.7
20260506161005 78 240 1.7 7.0 0.00 0.00 0.00 29 1011.7
20260506160805 78 240 1.7 6.1 0.00 0.00 0.00 29 1011.8
20260506160604 78 240 1.7 5.2 0.00 0.00 0.00 29 1011.6
20260506160005 78 250 1.7 6.1 0.00 0.00 0.00 29 1011.6
20260506155805 78 251 1.7 6.1 0.00 0.00 0.00 29 1011.5
20260506155605 77 257 1.7 6.1 0.00 0.00 0.00 30 1011.7
20260506155405 77 257 2.6 6.1 0.00 0.00 0.00 30 1011.4
20260506155204 77 257 2.6 7.0 0.00 0.00 0.00 30 1011.7
20260506155005 77 252 2.6 7.8 0.00 0.00 0.00 30 1011.5
20260506154605 77 257 3.5 9.6 0.00 0.00 0.00 30 1011.9
20260506154405 77 258 3.5 9.6 0.00 0.00 0.00 30 1011.7
20260506154204 78 256 2.6 9.6 0.00 0.00 0.00 30 1011.6
20260506153605 79 254 2.6 8.7 0.00 0.00 0.00 29 1011.7
20260506153404 78 262 2.6 8.7 0.00 0.00 0.00 30 1011.8
20260506153205 78 269 2.6 8.7 0.00 0.00 0.00 30 1011.7
20260506153005 78 273 2.6 8.7 0.00 0.00 0.00 30 1011.7
20260506152805 78 278 2.6 8.7 0.00 0.00 0.00 30 1011.8
20260506152604 78 277 2.6 7.0 0.00 0.00 0.00 30 1011.8
20260506152205 79 248 2.6 7.0 0.00 0.00 0.00 31 1011.6
20260506151805 78 249 3.5 9.6 0.00 0.00 0.00 32 1011.7
20260506151605 78 253 4.3 9.6 0.00 0.00 0.00 32 1011.8
20260506151405 78 257 3.5 9.6 0.00 0.00 0.00 32 1011.8
20260506151205 78 262 3.5 9.6 0.00 0.00 0.00 32 1011.9
20260506151005 79 266 3.5 9.6 0.00 0.00 0.00 32 1012.2
20260506150805 78 261 3.5 9.6 0.00 0.00 0.00 32 1011.9
20260506150605 79 268 3.5 9.6 0.00 0.00 0.00 33 1011.8
20260506150405 78 273 4.3 9.6 0.00 0.00 0.00 33 1011.8
20260506150205 78 278 4.3 9.6 0.00 0.00 0.00 32 1011.8
20260506150005 78 282 4.3 9.6 0.00 0.00 0.00 32 1011.7
20260506145805 79 283 3.5 8.7 0.00 0.00 0.00 31 1011.9
20260506145604 79 272 3.5 8.7 0.00 0.00 0.00 31 1011.8
20260506145204 79 263 2.6 7.0 0.00 0.00 0.00 31 1011.8
20260506145004 79 259 2.6 7.0 0.00 0.00 0.00 32 1011.7
20260506144605 79 266 3.5 10.4 0.00 0.00 0.00 33 1011.9
20260506144205 78 260 4.3 10.4 0.00 0.00 0.00 34 1011.7
20260506144004 78 258 4.3 10.4 0.00 0.00 0.00 33 1011.7
20260506143805 78 254 4.3 8.7 0.00 0.00 0.00 33 1011.8
20260506143605 79 268 3.5 8.7 0.00 0.00 0.00 33 1011.7
20260506143405 78 279 3.5 8.7 0.00 0.00 0.00 33 1011.7
20260506143205 79 280 3.5 8.7 0.00 0.00 0.00 33 1011.8
20260506143005 80 284 3.5 8.7 0.00 0.00 0.00 31 1011.7
20260506142805 80 269 2.6 7.8 0.00 0.00 0.00 33 1011.8
20260506142605 80 252 2.6 7.8 0.00 0.00 0.00 32 1011.7
20260506142205 80 245 2.6 7.8 0.00 0.00 0.00 33 1011.9
20260506142005 80 255 2.6 7.8 0.00 0.00 0.00 33 1011.7
20260506141805 80 257 2.6 7.8 0.00 0.00 0.00 33 1011.7
20260506141605 80 255 2.6 7.8 0.00 0.00 0.00 34 1011.8
20260506141405 79 258 3.5 9.6 0.00 0.00 0.00 33 1011.6
20260506141205 79 255 3.5 9.6 0.00 0.00 0.00 33 1011.8
20260506140205 79 233 3.5 9.6 0.00 0.00 0.00 32 1011.7
20260506140010 79 223 3.5 9.6 0.00 0.00 0.00 31 1011.9
20260506135805 79 224 3.5 9.6 0.00 0.00 0.00 30 1011.7
20260506135604 80 234 3.5 12.2 0.00 0.00 0.00 31 1011.7
20260506135205 79 251 3.5 12.2 0.00 0.00 0.00 31 1011.6
20260506135005 79 262 4.3 12.2 0.00 0.00 0.00 31 1011.7
20260506134805 79 261 4.3 12.2 0.00 0.00 0.00 30 1011.6
20260506134605 79 254 4.3 11.3 0.00 0.00 0.00 31 1011.7
20260506134405 79 251 4.3 11.3 0.00 0.00 0.00 29 1012.0
20260506134205 79 248 3.5 11.3 0.00 0.00 0.00 30 1011.9
20260506134005 80 230 3.5 9.6 0.00 0.00 0.00 30 1011.9
20260506133805 80 214 4.3 12.2 0.00 0.00 0.00 31 1011.8
20260506133605 79 216 4.3 12.2 0.00 0.00 0.00 32 1011.7
20260506133405 79 217 4.3 12.2 0.00 0.00 0.00 32 1011.8
20260506133004 79 232 4.3 12.2 0.00 0.00 0.00 32 1011.8
20260506132804 79 255 4.3 9.6 0.00 0.00 0.00 30 1012.0
20260506132605 79 261 4.3 9.6 0.00 0.00 0.00 31 1011.9
20260506132405 79 262 4.3 9.6 0.00 0.00 0.00 31 1012.0
20260506132204 79 256 4.3 9.6 0.00 0.00 0.00 31 1011.9
20260506132005 79 241 4.3 9.6 0.00 0.00 0.00 30 1011.9
20260506131805 79 240 4.3 9.6 0.00 0.00 0.00 29 1011.9
20260506131605 80 242 3.5 9.6 0.00 0.00 0.00 29 1011.9
20260506131204 79 245 4.3 9.6 0.00 0.00 0.00 30 1011.8
20260506130604 80 260 3.5 9.6 0.00 0.00 0.00 29 1011.7
20260506130405 80 258 3.5 9.6 0.00 0.00 0.00 29 1012.0
20260506130204 80 260 3.5 9.6 0.00 0.00 0.00 29 1012.0
20260506130005 80 262 3.5 9.6 0.00 0.00 0.00 28 1011.8
20260506125805 80 260 3.5 9.6 0.00 0.00 0.00 27 1011.8
20260506125604 80 246 3.5 9.6 0.00 0.00 0.00 30 1011.9
20260506125404 79 261 3.5 9.6 0.00 0.00 0.00 30 1011.9
20260506125204 79 262 4.3 9.6 0.00 0.00 0.00 30 1011.9
20260506124805 78 256 5.2 9.6 0.00 0.00 0.00 30 1011.8
20260506124004 79 263 4.3 12.2 0.00 0.00 0.00 29 1011.9
20260506123805 79 266 4.3 12.2 0.00 0.00 0.00 29 1012.0
20260506123605 79 263 4.3 11.3 0.00 0.00 0.00 29 1012.1
20260506123004 79 249 4.3 11.3 0.00 0.00 0.00 29 1012.2
20260506122804 79 244 4.3 11.3 0.00 0.00 0.00 29 1011.9
20260506122605 79 242 4.3 11.3 0.00 0.00 0.00 28 1012.2
20260506122404 78 246 5.2 11.3 0.00 0.00 0.00 28 1011.9
20260506122204 78 254 5.2 11.3 0.00 0.00 0.00 27 1012.3
20260506122004 79 253 5.2 10.4 0.00 0.00 0.00 29 1012.3
20260506121804 78 262 5.2 10.4 0.00 0.00 0.00 29 1012.1
20260506121604 78 267 5.2 10.4 0.00 0.00 0.00 30 1012.3
20260506121404 78 265 5.2 10.4 0.00 0.00 0.00 29 1012.2
20260506121204 78 259 5.2 10.4 0.00 0.00 0.00 29 1012.3
20260506121005 78 258 5.2 10.4 0.00 0.00 0.00 30 1012.2
20260506120804 78 255 5.2 11.3 0.00 0.00 0.00 30 1012.4
20260506120605 78 245 6.1 13.0 0.00 0.00 0.00 30 1012.2
20260506120205 78 234 5.2 13.0 0.00 0.00 0.00 30 1012.1
20260506120005 78 236 5.2 13.0 0.00 0.00 0.00 30 1012.5
20260506115604 79 241 6.1 13.9 0.00 0.00 0.00 31 1012.1
20260506115404 78 236 6.1 13.9 0.00 0.00 0.00 32 1012.3
20260506115204 78 233 6.1 13.9 0.00 0.00 0.00 32 1012.3
20260506115004 78 232 6.1 13.9 0.00 0.00 0.00 31 1012.0
20260506114805 78 232 6.1 13.9 0.00 0.00 0.00 32 1012.4
20260506114404 79 223 5.2 12.2 0.00 0.00 0.00 29 1012.3
20260506114204 78 235 5.2 12.2 0.00 0.00 0.00 30 1012.3
20260506114004 78 230 5.2 12.2 0.00 0.00 0.00 28 1012.5
20260506113604 79 220 5.2 12.2 0.00 0.00 0.00 29 1012.4
20260506113404 79 230 4.3 12.2 0.00 0.00 0.00 30 1012.4
20260506113204 79 235 5.2 12.2 0.00 0.00 0.00 30 1012.4
20260506113004 78 249 5.2 13.0 0.00 0.00 0.00 31 1012.5
20260506112804 78 260 5.2 13.0 0.00 0.00 0.00 33 1012.6
20260506112605 78 257 5.2 13.0 0.00 0.00 0.00 33 1012.5
20260506112205 78 248 4.3 13.0 0.00 0.00 0.00 32 1012.4
20260506111804 78 214 5.2 14.8 0.00 0.00 0.00 33 1012.5
20260506111604 78 210 5.2 14.8 0.00 0.00 0.00 35 1012.5
20260506111404 77 214 5.2 14.8 0.00 0.00 0.00 36 1012.5
20260506111204 77 217 6.1 14.8 0.00 0.00 0.00 36 1012.6
20260506111004 78 210 6.1 13.0 0.00 0.00 0.00 35 1012.4
20260506110804 78 214 5.2 13.0 0.00 0.00 0.00 34 1012.6
20260506110605 77 212 6.1 13.0 0.00 0.00 0.00 35 1012.6
20260506110204 78 210 6.1 13.9 0.00 0.00 0.00 35 1012.5
20260506110004 78 221 5.2 13.9 0.00 0.00 0.00 33 1012.7
20260506105804 78 218 5.2 13.9 0.00 0.00 0.00 35 1012.5
20260506105604 78 225 5.2 13.9 0.00 0.00 0.00 34 1012.5
20260506105404 78 233 5.2 13.0 0.00 0.00 0.00 34 1012.5
20260506105204 78 235 5.2 13.0 0.00 0.00 0.00 35 1012.6
20260506105005 78 239 5.2 13.0 0.00 0.00 0.00 34 1012.6
20260506104805 77 250 5.2 13.0 0.00 0.00 0.00 34 1012.6
20260506104404 78 270 5.2 10.4 0.00 0.00 0.00 34 1012.7
20260506104204 78 269 5.2 10.4 0.00 0.00 0.00 35 1012.6
20260506104005 77 265 5.2 10.4 0.00 0.00 0.00 35 1012.8
20260506103805 77 272 6.1 11.3 0.00 0.00 0.00 35 1012.8
20260506103604 77 269 6.1 11.3 0.00 0.00 0.00 35 1012.8
20260506103404 77 255 5.2 11.3 0.00 0.00 0.00 34 1012.6
20260506103204 77 245 5.2 11.3 0.00 0.00 0.00 34 1012.7
20260506102604 78 203 3.5 8.7 0.00 0.00 0.00 35 1012.7
20260506102405 78 196 3.5 9.6 0.00 0.00 0.00 35 1012.5
20260506102004 78 209 4.3 10.4 0.00 0.00 0.00 36 1012.7
20260506101804 78 218 5.2 10.4 0.00 0.00 0.00 36 1012.5
20260506101404 78 246 5.2 10.4 0.00 0.00 0.00 34 1012.7
20260506101204 77 251 5.2 10.4 0.00 0.00 0.00 35 1012.7
20260506101005 77 259 5.2 9.6 0.00 0.00 0.00 35 1012.8
20260506100805 77 261 4.3 9.6 0.00 0.00 0.00 36 1012.8
20260506100604 78 256 4.3 9.6 0.00 0.00 0.00 36 1012.7
20260506100404 78 245 4.3 8.7 0.00 0.00 0.00 36 1012.7
20260506100005 77 231 3.5 8.7 0.00 0.00 0.00 35 1012.6
20260506095804 77 226 3.5 9.6 0.00 0.00 0.00 36 1012.8
20260506095605 77 234 3.5 9.6 0.00 0.00 0.00 36 1012.9
20260506095204 77 240 4.3 9.6 0.00 0.00 0.00 35 1012.8
20260506095004 77 247 4.3 9.6 0.00 0.00 0.00 34 1012.9
20260506094805 77 253 4.3 9.6 0.00 0.00 0.00 35 1012.8
20260506094604 77 252 4.3 9.6 0.00 0.00 0.00 35 1012.8
20260506094404 77 249 4.3 9.6 0.00 0.00 0.00 34 1012.7
20260506094204 78 248 3.5 9.6 0.00 0.00 0.00 33 1012.9
20260506094004 78 252 3.5 9.6 0.00 0.00 0.00 35 1012.8
20260506093404 77 246 3.5 13.0 0.00 0.00 0.00 35 1013.1
20260506093206 77 249 3.5 13.0 0.00 0.00 0.00 35 1012.8
20260506093004 77 243 4.3 13.0 0.00 0.00 0.00 35 1012.9
20260506092804 77 246 3.5 11.3 0.00 0.00 0.00 36 1012.8
20260506092604 77 242 3.5 11.3 0.00 0.00 0.00 36 1012.6
20260506092404 77 249 3.5 11.3 0.00 0.00 0.00 36 1012.8
20260506092204 76 251 3.5 11.3 0.00 0.00 0.00 36 1012.5
20260506092004 77 254 3.5 11.3 0.00 0.00 0.00 37 1012.8
20260506091804 77 253 3.5 8.7 0.00 0.00 0.00 37 1012.5
20260506091604 76 257 3.5 8.7 0.00 0.00 0.00 37 1012.8
20260506091204 76 261 3.5 9.6 0.00 0.00 0.00 37 1012.9
20260506091004 76 260 2.6 9.6 0.00 0.00 0.00 36 1012.9
20260506090804 76 253 2.6 9.6 0.00 0.00 0.00 37 1012.9
20260506090604 76 251 2.6 9.6 0.00 0.00 0.00 37 1012.9
20260506090404 76 252 2.6 9.6 0.00 0.00 0.00 37 1012.8
20260506090204 76 248 2.6 9.6 0.00 0.00 0.00 36 1012.8
20260506090004 77 255 3.5 8.7 0.00 0.00 0.00 38 1012.8
20260506085804 76 253 3.5 8.7 0.00 0.00 0.00 38 1012.7
20260506085605 76 251 3.5 7.8 0.00 0.00 0.00 37 1012.8
20260506085204 76 243 3.5 7.8 0.00 0.00 0.00 38 1012.7
20260506085004 76 240 3.5 7.8 0.00 0.00 0.00 38 1012.8
20260506084804 76 252 3.5 7.8 0.00 0.00 0.00 38 1012.8
20260506084605 76 254 3.5 7.0 0.00 0.00 0.00 38 1012.8
20260506084404 76 245 3.5 7.8 0.00 0.00 0.00 39 1012.9
20260506083805 76 227 2.6 7.8 0.00 0.00 0.00 37 1012.8
20260506083604 77 228 2.6 7.8 0.00 0.00 0.00 38 1012.8
20260506083404 77 239 2.6 7.0 0.00 0.00 0.00 38 1012.8
20260506083204 76 238 2.6 7.0 0.00 0.00 0.00 38 1012.7
20260506083004 76 229 2.6 7.0 0.00 0.00 0.00 39 1012.8
20260506082805 76 220 2.6 7.0 0.00 0.00 0.00 39 1012.6
20260506082404 76 217 3.5 9.6 0.00 0.00 0.00 39 1012.8
20260506082204 76 231 3.5 9.6 0.00 0.00 0.00 38 1012.6
20260506082004 76 236 3.5 9.6 0.00 0.00 0.00 39 1012.6
20260506081805 76 241 3.5 9.6 0.00 0.00 0.00 39 1012.8
20260506081604 76 240 2.6 7.8 0.00 0.00 0.00 39 1012.9
20260506081404 76 243 2.6 7.8 0.00 0.00 0.00 39 1012.9
20260506081204 76 239 3.5 7.8 0.00 0.00 0.00 39 1012.7
20260506080804 75 250 2.6 7.8 0.00 0.00 0.00 38 1012.8
20260506080404 76 263 2.6 7.8 0.00 0.00 0.00 37 1012.7
20260506080204 76 266 2.6 7.0 0.00 0.00 0.00 37 1012.7
20260506073405 75 216 2.6 7.0 0.00 0.00 0.00 38 1012.5
20260506073204 74 216 2.6 7.0 0.00 0.00 0.00 38 1012.7
20260506072805 74 222 3.5 7.0 0.00 0.00 0.00 38 1012.5
20260506072604 74 234 3.5 7.0 0.00 0.00 0.00 39 1012.3
20260506072405 74 249 2.6 7.0 0.00 0.00 0.00 40 1012.4
20260506072204 74 258 2.6 7.0 0.00 0.00 0.00 40 1012.5
20260506072004 73 257 3.5 7.0 0.00 0.00 0.00 39 1012.4
20260506071804 73 244 3.5 7.0 0.00 0.00 0.00 39 1012.6
20260506071605 73 237 3.5 7.0 0.00 0.00 0.00 39 1012.3
20260506071404 73 229 3.5 7.0 0.00 0.00 0.00 39 1012.5
20260506071205 73 219 3.5 7.0 0.00 0.00 0.00 39 1012.4
20260506071004 74 219 3.5 7.0 0.00 0.00 0.00 39 1012.5
20260506070804 74 226 3.5 7.0 0.00 0.00 0.00 39 1012.6
20260506070605 74 230 2.6 7.0 0.00 0.00 0.00 39 1012.3
20260506070404 74 239 2.6 7.0 0.00 0.00 0.00 38 1012.3
20260506070204 74 252 1.7 5.2 0.00 0.00 0.00 38 1012.3
20260506062407 73 223 1.7 4.3 0.00 0.00 0.00 42 1012.5
20260506062205 72 216 1.7 4.3 0.00 0.00 0.00 43 1012.6
20260506062005 72 218 1.7 5.2 0.00 0.00 0.00 42 1012.7
20260506061804 72 227 1.7 5.2 0.00 0.00 0.00 42 1012.8
20260506061604 72 217 1.7 5.2 0.00 0.00 0.00 42 1012.7
20260506061404 72 219 1.7 5.2 0.00 0.00 0.00 43 1012.6
20260506061205 72 227 1.7 5.2 0.00 0.00 0.00 43 1012.8
20260506061004 72 222 1.7 5.2 0.00 0.00 0.00 42 1012.7
20260506060804 72 209 0.9 4.3 0.00 0.00 0.00 44 1012.6
20260506060605 72 212 0.9 3.5 0.00 0.00 0.00 44 1012.7
20260506060404 72 198 0.9 3.5 0.00 0.00 0.00 44 1012.6
20260506051204 70 90 0.0 2.6 0.00 0.00 0.00 54 1012.2
20260506050806 68 130 0.0 1.7 0.00 0.00 0.00 61 1012.3
20260506050606 67 133 0.0 1.7 0.00 0.00 0.00 61 1012.2
20260506050204 65 130 0.0 1.7 0.00 0.00 0.00 63 1012.2
20260506045004 63 181 0.0 1.7 0.00 0.00 0.00 63 1012.0
20260506044805 62 181 0.0 1.7 0.00 0.00 0.00 63 1012.0
20260506044404 62 181 0.0 1.7 0.00 0.00 0.00 64 1012.0
20260506044205 62 181 0.0 1.7 0.00 0.00 0.00 65 1012.2
20260506044004 62 181 0.0 1.7 0.00 0.00 0.00 65 1012.2
20260506043804 61 181 0.0 1.7 0.00 0.00 0.00 65 1012.3
20260506043604 62 169 0.0 1.7 0.00 0.00 0.00 65 1012.3
20260506043404 61 168 0.0 1.7 0.00 0.00 0.00 65 1012.1
20260506043204 61 166 0.0 1.7 0.00 0.00 0.00 65 1012.0
20260506042804 61 156 0.0 1.7 0.00 0.00 0.00 66 1012.0
20260506042404 61 164 0.0 1.7 0.00 0.00 0.00 66 1012.2
20260506042204 61 166 0.0 1.7 0.00 0.00 0.00 66 1012.1
20260506042004 61 174 0.0 1.7 0.00 0.00 0.00 66 1012.2
20260506041804 61 192 0.0 1.7 0.00 0.00 0.00 66 1012.1
20260506041404 60 184 0.0 1.7 0.00 0.00 0.00 67 1012.2
20260506041205 60 176 0.0 1.7 0.00 0.00 0.00 67 1012.1
20260506040804 60 135 0.0 1.7 0.00 0.00 0.00 67 1011.9
20260506040604 60 135 0.0 1.7 0.00 0.00 0.00 68 1011.9
20260506040404 60 135 0.0 1.7 0.00 0.00 0.00 68 1011.9
20260506040204 60 142 0.0 1.7 0.00 0.00 0.00 68 1011.9
20260506040004 60 152 0.0 1.7 0.00 0.00 0.00 68 1011.9
20260506035804 60 156 0.0 1.7 0.00 0.00 0.00 68 1011.9
20260506035404 60 169 0.0 1.7 0.00 0.00 0.00 68 1011.8
20260506035204 60 163 0.0 1.7 0.00 0.00 0.00 68 1012.0
20260506035004 60 157 0.0 1.7 0.00 0.00 0.00 68 1011.7
20260506034805 60 160 0.0 1.7 0.00 0.00 0.00 68 1011.7
20260506034605 60 168 0.0 1.7 0.00 0.00 0.00 68 1011.9
20260506034405 60 166 0.0 1.7 0.00 0.00 0.00 68 1011.7
20260506034205 60 181 0.0 1.7 0.00 0.00 0.00 68 1011.6
20260506034004 60 177 0.0 1.7 0.00 0.00 0.00 68 1011.7
20260506033804 60 173 0.0 1.7 0.00 0.00 0.00 68 1011.7
20260506033604 60 174 0.0 1.7 0.00 0.00 0.00 68 1011.6
20260506033204 60 172 0.0 2.6 0.00 0.00 0.00 68 1011.6
20260506032804 60 195 0.9 3.5 0.00 0.00 0.00 69 1011.6
20260506032604 60 191 0.9 5.2 0.00 0.00 0.00 69 1011.5
20260506032404 60 193 0.9 5.2 0.00 0.00 0.00 69 1011.5
20260506032205 60 194 0.9 5.2 0.00 0.00 0.00 70 1011.4
20260506032004 59 177 0.0 5.2 0.00 0.00 0.00 70 1011.5
20260506031605 59 173 0.0 2.6 0.00 0.00 0.00 71 1011.5
20260506031404 59 175 0.0 3.5 0.00 0.00 0.00 71 1011.4
20260506031204 59 181 0.9 3.5 0.00 0.00 0.00 70 1011.8
20260506031004 60 181 0.9 3.5 0.00 0.00 0.00 70 1011.5
20260506030804 60 176 1.7 3.5 0.00 0.00 0.00 70 1011.6
20260506030404 60 176 0.9 3.5 0.00 0.00 0.00 71 1011.5
20260506030204 60 175 0.9 3.5 0.00 0.00 0.00 71 1011.3
20260506030004 60 174 0.9 3.5 0.00 0.00 0.00 71 1011.5
20260506025804 60 181 0.0 2.6 0.00 0.00 0.00 71 1011.4
20260506025604 60 182 0.0 2.6 0.00 0.00 0.00 71 1011.5
20260506025204 60 187 0.0 2.6 0.00 0.00 0.00 71 1011.2
20260506025005 60 179 0.0 2.6 0.00 0.00 0.00 70 1011.3
20260506024804 60 174 0.0 2.6 0.00 0.00 0.00 70 1011.4
20260506024604 60 164 0.0 2.6 0.00 0.00 0.00 71 1011.4
20260506024204 60 135 0.0 1.7 0.00 0.00 0.00 70 1011.5
20260506024004 60 149 0.0 1.7 0.00 0.00 0.00 70 1011.7
20260506023804 60 153 0.0 2.6 0.00 0.00 0.00 70 1011.5
20260506023404 60 158 0.0 3.5 0.00 0.00 0.00 71 1011.8
20260506023204 60 157 0.0 3.5 0.00 0.00 0.00 71 1011.6
20260506022805 60 159 0.0 3.5 0.00 0.00 0.00 71 1011.4
20260506022605 60 158 0.0 1.7 0.00 0.00 0.00 71 1011.5
20260506022404 60 166 0.0 1.7 0.00 0.00 0.00 71 1011.4
20260506022204 60 177 0.0 1.7 0.00 0.00 0.00 70 1011.8
20260506022004 59 176 0.0 1.7 0.00 0.00 0.00 70 1011.7
20260506021804 60 171 0.0 1.7 0.00 0.00 0.00 70 1011.6
20260506021604 60 179 0.0 2.6 0.00 0.00 0.00 70 1011.7
20260506021404 60 193 0.0 2.6 0.00 0.00 0.00 70 1011.6
20260506021204 60 197 0.0 2.6 0.00 0.00 0.00 70 1011.6
20260506021004 60 199 0.0 2.6 0.00 0.00 0.00 70 1011.6
20260506020804 60 199 0.9 2.6 0.00 0.00 0.00 70 1011.8
20260506020604 60 199 0.9 2.6 0.00 0.00 0.00 70 1011.7
20260506020404 60 200 0.0 2.6 0.00 0.00 0.00 70 1011.5
20260506020205 60 198 0.0 2.6 0.00 0.00 0.00 70 1011.7
20260506015804 60 191 0.0 2.6 0.00 0.00 0.00 70 1011.8
20260506015604 60 191 0.0 2.6 0.00 0.00 0.00 70 1011.6
20260506015404 60 181 0.0 2.6 0.00 0.00 0.00 70 1011.7
20260506015204 60 181 0.0 2.6 0.00 0.00 0.00 70 1011.9
20260506015005 60 181 0.0 2.6 0.00 0.00 0.00 70 1011.7
20260506014604 60 194 0.9 3.5 0.00 0.00 0.00 70 1011.8
20260506014404 60 193 0.9 3.5 0.00 0.00 0.00 70 1011.8
20260506014204 60 193 0.9 3.5 0.00 0.00 0.00 70 1011.8
20260506014005 60 194 0.9 3.5 0.00 0.00 0.00 70 1011.6
20260506013805 60 190 0.0 3.5 0.00 0.00 0.00 70 1011.8
20260506013604 60 176 0.0 2.6 0.00 0.00 0.00 70 1011.6
20260506013404 60 175 0.0 1.7 0.00 0.00 0.00 70 1011.7
20260506012804 59 172 0.0 1.7 0.00 0.00 0.00 69 1011.8
20260506012605 60 175 0.0 1.7 0.00 0.00 0.00 69 1011.8
20260506012404 60 181 0.0 1.7 0.00 0.00 0.00 69 1011.7
20260506012204 60 185 0.0 1.7 0.00 0.00 0.00 69 1011.8
20260506012004 60 186 0.0 1.7 0.00 0.00 0.00 69 1011.7
20260506011404 60 186 0.0 2.6 0.00 0.00 0.00 68 1011.6
20260506011204 60 183 0.0 2.6 0.00 0.00 0.00 68 1011.6
20260506011004 60 181 0.0 2.6 0.00 0.00 0.00 69 1011.6
20260506010804 60 181 0.0 1.7 0.00 0.00 0.00 69 1011.6
20260506010605 60 181 0.0 1.7 0.00 0.00 0.00 68 1011.6
20260506010404 60 181 0.0 2.6 0.00 0.00 0.00 68 1011.8
20260506010204 60 183 0.0 2.6 0.00 0.00 0.00 68 1011.8
20260506010004 60 187 0.9 2.6 0.00 0.00 0.00 68 1011.8
20260506005605 60 188 0.9 2.6 0.00 0.00 0.00 68 1011.6
20260506005204 60 189 0.9 2.6 0.00 0.00 0.00 68 1011.8
20260506005004 60 185 0.9 2.6 0.00 0.00 0.00 68 1011.8
20260506004804 60 186 0.9 2.6 0.00 0.00 0.00 69 1011.7
20260506004604 61 183 0.9 2.6 0.00 0.00 0.00 68 1011.8
20260506004405 60 181 0.9 2.6 0.00 0.00 0.00 68 1012.0
20260506004204 60 181 0.9 2.6 0.00 0.00 0.00 68 1011.9
20260506004004 60 181 0.0 2.6 0.00 0.00 0.00 68 1011.8
20260506003604 61 183 0.9 3.5 0.00 0.00 0.00 68 1011.9
20260506003005 61 196 1.7 3.5 0.00 0.00 0.00 69 1011.8
20260506002805 61 200 1.7 3.5 0.00 0.00 0.00 69 1011.9
20260506002604 60 207 1.7 3.5 0.00 0.00 0.00 69 1011.9
20260506002404 61 206 1.7 4.3 0.00 0.00 0.00 69 1012.0
20260506002205 61 214 1.7 4.3 0.00 0.00 0.00 68 1011.9
20260506002005 61 221 1.7 4.3 0.00 0.00 0.00 68 1011.8
20260506001804 61 217 1.7 4.3 0.00 0.00 0.00 68 1011.8
20260506001405 61 216 1.7 4.3 0.00 0.00 0.00 68 1011.8
20260506001205 61 222 1.7 4.3 0.00 0.00 0.00 68 1011.6
20260506001005 61 223 1.7 3.5 0.00 0.00 0.00 68 1011.8
20260506000605 61 247 1.7 6.1 0.00 0.00 0.00 68 1011.9
20260506000404 61 242 1.7 6.1 0.00 0.00 0.00 68 1011.8
20260506000205 61 240 1.7 6.1 0.00 0.00 0.00 68 1011.7
20260506000005 61 242 1.7 6.1 0.00 0.00 0.00 68 1011.7
20260505235608 61 234 1.7 3.5 0.00 0.00 0.00 67 1011.8
20260505235404 61 237 1.7 3.5 0.00 0.00 0.00 67 1011.9
20260505235204 62 238 1.7 3.5 0.00 0.00 0.00 67 1012.0
20260505235005 61 235 1.7 3.5 0.00 0.00 0.00 67 1011.8
20260505234604 61 239 0.9 3.5 0.00 0.00 0.00 66 1011.8
20260505234405 61 236 0.9 3.5 0.00 0.00 0.00 67 1011.9
20260505234204 62 238 1.7 3.5 0.00 0.00 0.00 67 1012.1
20260505234005 62 236 1.7 4.3 0.00 0.00 0.00 66 1011.8
20260505233804 62 237 1.7 5.2 0.00 0.00 0.00 66 1011.9
20260505233604 61 231 1.7 5.2 0.00 0.00 0.00 66 1011.9
20260505233204 62 231 1.7 5.2 0.00 0.00 0.00 67 1011.7
20260505232804 61 208 1.7 3.5 0.00 0.00 0.00 67 1012.0
20260505232608 61 204 0.9 3.5 0.00 0.00 0.00 67 1012.0
20260505232405 61 202 0.9 3.5 0.00 0.00 0.00 68 1012.0
20260505232204 61 196 1.7 3.5 0.00 0.00 0.00 67 1012.0
20260505232004 60 208 1.7 3.5 0.00 0.00 0.00 68 1012.0
20260505231804 61 209 1.7 3.5 0.00 0.00 0.00 68 1012.1
20260505231604 61 223 1.7 3.5 0.00 0.00 0.00 68 1012.1
20260505231404 61 236 1.7 3.5 0.00 0.00 0.00 68 1011.9
20260505231205 61 242 1.7 3.5 0.00 0.00 0.00 69 1012.0
20260505231004 61 244 1.7 3.5 0.00 0.00 0.00 69 1012.2
20260505230805 60 246 2.6 4.3 0.00 0.00 0.00 70 1012.1
20260505230604 60 239 2.6 4.3 0.00 0.00 0.00 72 1012.0
20260505230404 60 227 2.6 4.3 0.00 0.00 0.00 72 1012.1
20260505230204 60 218 1.7 4.3 0.00 0.00 0.00 72 1012.0
20260505230004 60 206 1.7 4.3 0.00 0.00 0.00 72 1011.9
20260505225605 59 181 0.9 3.5 0.00 0.00 0.00 75 1012.1
20260505225404 59 181 0.0 2.6 0.00 0.00 0.00 76 1012.4
20260505225204 59 181 0.0 0.9 0.00 0.00 0.00 76 1012.0
20260505225005 59 181 0.0 1.7 0.00 0.00 0.00 76 1011.9
20260505224804 59 181 0.0 1.7 0.00 0.00 0.00 76 1012.1
20260505224604 59 181 0.0 1.7 0.00 0.00 0.00 76 1012.2
20260505224404 59 181 0.0 1.7 0.00 0.00 0.00 76 1012.4
20260505224004 59 181 0.0 0.9 0.00 0.00 0.00 75 1012.0
20260505223604 59 181 0.0 0.9 0.00 0.00 0.00 75 1012.2
20260505223405 59 181 0.0 0.9 0.00 0.00 0.00 75 1012.2
20260505223204 59 181 0.0 0.9 0.00 0.00 0.00 75 1012.1
20260505223005 59 181 0.0 0.9 0.00 0.00 0.00 75 1012.2
20260505222806 59 0 0.0 0.0 0.00 0.00 0.00 75 1012.4
20260505222608 59 0 0.0 0.0 0.00 0.00 0.00 75 1012.2
20260505222204 59 0 0.0 0.0 0.00 0.00 0.00 75 1012.3
20260505222004 59 0 0.0 0.0 0.00 0.00 0.00 75 1012.2
20260505221804 59 0 0.0 0.0 0.00 0.00 0.00 75 1012.4
20260505221404 59 0 0.0 0.0 0.00 0.00 0.00 74 1012.2
20260505221004 59 0 0.0 0.0 0.00 0.00 0.00 74 1012.2
20260505220804 60 0 0.0 0.0 0.00 0.00 0.00 74 1012.2
20260505220604 60 181 0.0 1.7 0.00 0.00 0.00 74 1012.2
20260505220204 60 168 0.0 1.7 0.00 0.00 0.00 74 1012.0
20260505215804 60 168 0.0 1.7 0.00 0.00 0.00 74 1012.2
20260505215604 60 160 0.0 1.7 0.00 0.00 0.00 73 1012.4
20260505215404 60 135 0.0 1.7 0.00 0.00 0.00 73 1012.2
20260505215204 60 135 0.0 1.7 0.00 0.00 0.00 73 1012.0
20260505215004 60 135 0.0 1.7 0.00 0.00 0.00 73 1012.1
20260505214804 60 135 0.0 1.7 0.00 0.00 0.00 73 1012.1
20260505214604 60 135 0.0 1.7 0.00 0.00 0.00 74 1012.3
20260505214404 61 135 0.0 1.7 0.00 0.00 0.00 74 1012.2
20260505214204 60 135 0.0 1.7 0.00 0.00 0.00 74 1012.3
20260505213604 60 144 0.0 1.7 0.00 0.00 0.00 74 1012.3
20260505213404 60 150 0.0 1.7 0.00 0.00 0.00 74 1012.2
20260505213204 60 151 0.0 1.7 0.00 0.00 0.00 74 1012.1
20260505213004 60 158 0.0 1.7 0.00 0.00 0.00 73 1012.1
20260505212804 60 159 0.0 1.7 0.00 0.00 0.00 73 1012.1
20260505212604 60 157 0.0 1.7 0.00 0.00 0.00 74 1012.3
20260505212404 60 164 0.0 1.7 0.00 0.00 0.00 73 1012.2
20260505212204 60 178 0.0 1.7 0.00 0.00 0.00 73 1012.1
20260505211404 60 181 0.0 1.7 0.00 0.00 0.00 72 1012.4
20260505211204 60 0 0.0 0.0 0.00 0.00 0.00 71 1012.4
20260505211004 60 0 0.0 0.0 0.00 0.00 0.00 72 1012.4
20260505210804 60 181 0.0 1.7 0.00 0.00 0.00 70 1012.3
20260505210404 60 181 0.0 1.7 0.00 0.00 0.00 70 1012.3
20260505210204 60 181 0.0 1.7 0.00 0.00 0.00 70 1012.3
20260505205804 60 181 0.0 0.9 0.00 0.00 0.00 70 1012.3
20260505205604 60 181 0.0 0.9 0.00 0.00 0.00 70 1012.3
20260505205404 60 181 0.0 0.9 0.00 0.00 0.00 70 1012.2
20260505205004 60 181 0.0 1.7 0.00 0.00 0.00 70 1012.1
20260505204804 60 181 0.0 1.7 0.00 0.00 0.00 70 1012.3
20260505204604 60 181 0.0 1.7 0.00 0.00 0.00 70 1012.4
20260505204204 60 181 0.0 0.9 0.00 0.00 0.00 70 1012.3
20260505204005 61 181 0.0 1.7 0.00 0.00 0.00 70 1012.2
20260505203804 61 181 0.0 1.7 0.00 0.00 0.00 70 1012.3
20260505203604 61 181 0.0 1.7 0.00 0.00 0.00 70 1012.3
20260505203404 61 181 0.0 1.7 0.00 0.00 0.00 70 1012.3
20260505203204 61 181 0.0 1.7 0.00 0.00 0.00 70 1012.6
20260505203005 61 181 0.0 0.9 0.00 0.00 0.00 70 1012.7
20260505202804 61 181 0.0 0.9 0.00 0.00 0.00 70 1012.4
20260505202604 61 181 0.0 0.9 0.00 0.00 0.00 70 1012.4
20260505202205 61 181 0.0 0.9 0.00 0.00 0.00 70 1012.4
20260505202004 61 181 0.0 0.9 0.00 0.00 0.00 70 1012.3